Location: Unspecified
(0.0000°N, 0.0000°E)
Time: 08:29:19
(UTC+00:00)

Vanguard 2 Rocket - Pass Details

Date: 25 January 2020
Orbit: 554 x 3326 km, 32.9° (Epoch: 21 September)

Event Time Altitude Azimuth Distance (km) Brightness Sun altitude
Rises 16:22:26 0° 262° (W) 6,983 12.7 25.8°
Reaches altitude 10° 16:28:38 10° 250° (WSW) 6,184 13.1 24.4°
Maximum altitude 16:43:21 24° 202° (SSW) 5,076 11.5 21.0°
Drops below altitude 10° 16:56:53 10° 154° (SSE) 5,605 10.9 17.8°
Sets 17:02:12 0° 141° (SE) 6,222 11.0 16.5°
